Location: Newark
(11.6000°N, 43.1667°E)
Time: 09:04:36
(UTC+00:00)

Envisat - Pass Details

Date: 25 September 2019
Orbit: 764 x 766 km, 98.1° (Epoch: 20 October)

Event Time Altitude Azimuth Distance (km) Brightness Sun altitude
Rises 16:07:11 0° 185° (S) 3,220 6.3 -16.9°
Reaches altitude 10° 16:09:38 10° 193° (SSW) 2,294 5.6 -17.5°
Maximum altitude 16:14:15 36° 259° (W) 1,193 4.6 -18.6°
Drops below altitude 10° 16:18:52 10° 326° (NW) 2,293 6.0 -19.7°
Sets 16:21:21 0° 334° (NNW) 3,219 6.6 -20.3°
